Time,TemperatureF,DewpointF,PressureIn,WindDirection,WindDirectionDegrees,WindSpeedMPH,WindSpeedGustMPH,Humidity,HourlyPrecipIn,Conditions,Clouds,dailyrainin,SolarRadiationWatts/m^2,SoftwareType,DateUTC
2013-03-31 00:00:00,39.5,26.3,30.18,South,184,0.0,1.0,59,0.00,,,0.00,0,Wunderground v.1.15,2013-03-31 04:00:00,
2013-03-31 00:03:00,39.4,26.7,30.18,South,184,0.0,1.0,60,0.00,,,0.00,0,Wunderground v.1.15,2013-03-31 04:03:00,
2013-03-31 00:06:00,39.3,27.0,30.18,South,184,0.0,1.0,61,0.00,,,0.00,0,Wunderground v.1.15,2013-03-31 04:06:00,
2013-03-31 00:11:00,39.2,26.9,30.18,South,184,0.0,0.0,61,0.00,,,0.00,0,Wunderground v.1.15,2013-03-31 04:11:00,
2013-03-31 00:16:00,39.1,27.2,30.18,South,184,0.0,0.0,62,0.00,,,0.00,0,Wunderground v.1.15,2013-03-31 04:16:00,
2013-03-31 00:22:00,39.1,27.6,30.18,South,184,0.0,1.0,63,0.00,,,0.00,0,Wunderground v.1.15,2013-03-31 04:22:00,
2013-03-31 00:28:00,38.9,27.0,30.18,South,184,0.0,1.0,62,0.00,,,0.00,0,Wunderground v.1.15,2013-03-31 04:28:00,
2013-03-31 00:33:00,38.7,26.8,30.18,South,184,0.0,1.0,62,0.00,,,0.00,0,Wunderground v.1.15,2013-03-31 04:33:00,
2013-03-31 00:39:00,38.6,27.1,30.18,South,184,0.0,1.0,63,0.00,,,0.00,0,Wunderground v.1.15,2013-03-31 04:39:00,
2013-03-31 00:44:00,38.4,27.7,30.18,South,184,0.0,2.0,65,0.00,,,0.00,0,Wunderground v.1.15,2013-03-31 04:44:00,
2013-03-31 00:50:00,38.3,27.6,30.18,South,184,2.0,2.0,65,0.00,,,0.00,0,Wunderground v.1.15,2013-03-31 04:50:00,
2013-03-31 00:57:00,38.2,27.5,30.18,South,184,1.0,2.0,65,0.00,,,0.00,0,Wunderground v.1.15,2013-03-31 04:57:00,
2013-03-31 01:03:00,38.0,28.0,30.18,South,184,1.0,1.0,67,0.00,,,0.00,0,Wunderground v.1.15,2013-03-31 05:03:00,
2013-03-31 01:09:00,37.7,28.1,30.18,South,184,1.0,1.0,68,0.00,,,0.00,0,Wunderground v.1.15,2013-03-31 05:09:00,
2013-03-31 01:14:00,37.5,27.9,30.17,South,184,0.0,1.0,68,0.00,,,0.00,0,Wunderground v.1.15,2013-03-31 05:14:00,
2013-03-31 01:20:00,37.3,28.1,30.17,South,184,0.0,1.0,69,0.00,,,0.00,0,Wunderground v.1.15,2013-03-31 05:20:00,
2013-03-31 01:26:00,37.1,28.2,30.17,South,184,0.0,2.0,70,0.00,,,0.00,0,Wunderground v.1.15,2013-03-31 05:26:00,
2013-03-31 01:32:00,36.8,27.9,30.17,South,184,1.0,1.0,70,0.00,,,0.00,0,Wunderground v.1.15,2013-03-31 05:32:00,
2013-03-31 01:38:00,36.4,27.5,30.17,South,179,1.0,3.0,70,0.00,,,0.00,0,Wunderground v.1.15,2013-03-31 05:38:00,
2013-03-31 01:43:00,36.2,27.4,30.17,South,179,1.0,1.0,70,0.00,,,0.00,0,Wunderground v.1.15,2013-03-31 05:43:00,
2013-03-31 01:49:00,36.1,26.9,30.17,South,179,0.0,1.0,69,0.00,,,0.00,0,Wunderground v.1.15,2013-03-31 05:49:00,
2013-03-31 01:55:00,36.1,26.2,30.17,South,179,0.0,1.0,67,0.00,,,0.00,0,Wunderground v.1.15,2013-03-31 05:55:00,
2013-03-31 02:00:00,36.2,26.6,30.16,South,179,1.0,1.0,68,0.00,,,0.00,0,Wunderground v.1.15,2013-03-31 06:00:00,
2013-03-31 02:06:00,36.0,26.5,30.17,South,179,1.0,1.0,68,0.00,,,0.00,0,Wunderground v.1.15,2013-03-31 06:06:00,
2013-03-31 02:11:00,35.9,26.7,30.17,South,179,0.0,1.0,69,0.00,,,0.00,0,Wunderground v.1.15,2013-03-31 06:11:00,
2013-03-31 02:16:00,35.7,26.2,30.16,South,179,0.0,1.0,68,0.00,,,0.00,0,Wunderground v.1.15,2013-03-31 06:16:00,
2013-03-31 02:22:00,35.7,26.2,30.16,South,179,1.0,1.0,68,0.00,,,0.00,0,Wunderground v.1.15,2013-03-31 06:22:00,
2013-03-31 02:27:00,35.5,26.0,30.16,South,179,1.0,1.0,68,0.00,,,0.00,0,Wunderground v.1.15,2013-03-31 06:27:00,
2013-03-31 02:33:00,35.7,25.8,30.16,South,180,1.0,2.0,67,0.00,,,0.00,0,Wunderground v.1.15,2013-03-31 06:33:00,
2013-03-31 02:38:00,35.8,25.9,30.16,South,180,1.0,2.0,67,0.00,,,0.00,0,Wunderground v.1.15,2013-03-31 06:38:00,
2013-03-31 02:43:00,35.7,25.8,30.16,South,190,0.0,4.0,67,0.00,,,0.00,0,Wunderground v.1.15,2013-03-31 06:43:00,
2013-03-31 02:49:00,35.8,25.5,30.16,South,190,1.0,4.0,66,0.00,,,0.00,0,Wunderground v.1.15,2013-03-31 06:49:00,
2013-03-31 02:54:00,35.7,25.4,30.16,South,190,1.0,2.0,66,0.00,,,0.00,0,Wunderground v.1.15,2013-03-31 06:54:00,
2013-03-31 02:59:00,35.7,25.4,30.15,South,190,1.0,2.0,66,0.00,,,0.00,0,Wunderground v.1.15,2013-03-31 06:59:00,
2013-03-31 03:05:00,35.6,25.7,30.15,South,182,0.0,2.0,67,0.00,,,0.00,0,Wunderground v.1.15,2013-03-31 07:05:00,
2013-03-31 03:10:00,35.5,25.3,30.15,South,180,1.0,2.0,66,0.00,,,0.00,0,Wunderground v.1.15,2013-03-31 07:10:00,
2013-03-31 03:16:00,35.2,25.3,30.15,South,180,1.0,2.0,67,0.00,,,0.00,0,Wunderground v.1.15,2013-03-31 07:16:00,
2013-03-31 03:22:00,35.1,25.2,30.15,South,180,1.0,1.0,67,0.00,,,0.00,0,Wunderground v.1.15,2013-03-31 07:22:00,
2013-03-31 03:28:00,34.8,25.3,30.15,South,180,1.0,2.0,68,0.00,,,0.00,0,Wunderground v.1.15,2013-03-31 07:28:00,
2013-03-31 03:33:00,34.7,25.6,30.15,South,180,1.0,2.0,69,0.00,,,0.00,0,Wunderground v.1.15,2013-03-31 07:33:00,
2013-03-31 03:39:00,34.5,25.4,30.14,South,177,1.0,2.0,69,0.00,,,0.00,0,Wunderground v.1.15,2013-03-31 07:39:00,
2013-03-31 03:45:00,34.2,25.4,30.14,South,177,1.0,1.0,70,0.00,,,0.00,0,Wunderground v.1.15,2013-03-31 07:45:00,
2013-03-31 03:50:00,34.1,25.3,30.14,South,177,1.0,1.0,70,0.00,,,0.00,0,Wunderground v.1.15,2013-03-31 07:50:00,
2013-03-31 03:56:00,34.0,25.6,30.14,South,177,1.0,2.0,71,0.00,,,0.00,0,Wunderground v.1.15,2013-03-31 07:56:00,
2013-03-31 04:02:00,33.8,25.4,30.14,South,177,1.0,1.0,71,0.00,,,0.00,0,Wunderground v.1.15,2013-03-31 08:02:00,
2013-03-31 04:07:00,33.7,25.3,30.14,South,177,1.0,3.0,71,0.00,,,0.00,0,Wunderground v.1.15,2013-03-31 08:07:00,
2013-03-31 04:13:00,33.7,25.0,30.13,South,177,1.0,1.0,70,0.00,,,0.00,0,Wunderground v.1.15,2013-03-31 08:13:00,
2013-03-31 04:18:00,33.7,25.0,30.13,South,182,1.0,2.0,70,0.00,,,0.00,0,Wunderground v.1.15,2013-03-31 08:18:00,
2013-03-31 04:24:00,33.9,24.8,30.13,South,188,1.0,2.0,69,0.00,,,0.00,0,Wunderground v.1.15,2013-03-31 08:24:00,
2013-03-31 04:30:00,34.0,24.5,30.13,South,188,1.0,1.0,68,0.00,,,0.00,0,Wunderground v.1.15,2013-03-31 08:30:00,
2013-03-31 04:36:00,33.9,24.8,30.13,South,182,1.0,2.0,69,0.00,,,0.00,0,Wunderground v.1.15,2013-03-31 08:36:00,
2013-03-31 04:41:00,33.5,24.8,30.13,South,175,1.0,1.0,70,0.00,,,0.00,0,Wunderground v.1.15,2013-03-31 08:41:00,
2013-03-31 04:48:00,33.1,24.7,30.12,South,174,1.0,1.0,71,0.00,,,0.00,0,Wunderground v.1.15,2013-03-31 08:48:00,
2013-03-31 04:54:00,32.9,24.9,30.12,South,171,1.0,1.0,72,0.00,,,0.00,0,Wunderground v.1.15,2013-03-31 08:54:00,
2013-03-31 05:00:00,32.8,24.8,30.12,South,171,1.0,1.0,72,0.00,,,0.00,0,Wunderground v.1.15,2013-03-31 09:00:00,
2013-03-31 05:05:00,32.8,24.8,30.12,South,173,1.0,1.0,72,0.00,,,0.00,0,Wunderground v.1.15,2013-03-31 09:05:00,
2013-03-31 05:10:00,32.8,24.8,30.12,South,173,0.0,0.0,72,0.00,,,0.00,0,Wunderground v.1.15,2013-03-31 09:10:00,
2013-03-31 05:15:00,32.7,24.7,30.12,South,173,0.0,0.0,72,0.00,,,0.00,0,Wunderground v.1.15,2013-03-31 09:15:00,
2013-03-31 05:21:00,32.8,24.4,30.11,South,173,0.0,1.0,71,0.00,,,0.00,0,Wunderground v.1.15,2013-03-31 09:21:00,
2013-03-31 05:27:00,33.2,24.5,30.11,South,173,1.0,2.0,70,0.00,,,0.00,0,Wunderground v.1.15,2013-03-31 09:27:00,
2013-03-31 05:32:00,33.3,24.9,30.11,South,171,1.0,1.0,71,0.00,,,0.00,0,Wunderground v.1.15,2013-03-31 09:32:00,
2013-03-31 05:37:00,33.4,24.7,30.11,South,170,1.0,2.0,70,0.00,,,0.00,0,Wunderground v.1.15,2013-03-31 09:37:00,
2013-03-31 05:43:00,33.2,24.8,30.11,South,170,1.0,1.0,71,0.00,,,0.00,0,Wunderground v.1.15,2013-03-31 09:43:00,
2013-03-31 05:48:00,32.9,24.9,30.11,South,169,1.0,2.0,72,0.00,,,0.00,0,Wunderground v.1.15,2013-03-31 09:48:00,
2013-03-31 05:54:00,32.7,24.7,30.11,South,169,1.0,1.0,72,0.00,,,0.00,0,Wunderground v.1.15,2013-03-31 09:54:00,
2013-03-31 06:00:00,32.7,25.3,30.11,South,169,1.0,1.0,74,0.00,,,0.00,0,Wunderground v.1.15,2013-03-31 10:00:00,
2013-03-31 06:05:00,32.7,25.3,30.10,South,169,1.0,2.0,74,0.00,,,0.00,0,Wunderground v.1.15,2013-03-31 10:05:00,
2013-03-31 06:11:00,32.8,25.1,30.10,South,170,1.0,1.0,73,0.00,,,0.00,0,Wunderground v.1.15,2013-03-31 10:11:00,
2013-03-31 06:17:00,32.6,25.2,30.10,SSE,157,1.0,2.0,74,0.00,,,0.00,0,Wunderground v.1.15,2013-03-31 10:17:00,
2013-03-31 06:23:00,32.3,24.9,30.10,SSE,157,2.0,2.0,74,0.00,,,0.00,0,Wunderground v.1.15,2013-03-31 10:23:00,
2013-03-31 06:29:00,32.2,25.2,30.10,SSE,157,1.0,2.0,75,0.00,,,0.00,0,Wunderground v.1.15,2013-03-31 10:29:00,
2013-03-31 06:34:00,32.3,25.3,30.10,SSE,157,0.0,1.0,75,0.00,,,0.00,0,Wunderground v.1.15,2013-03-31 10:34:00,
2013-03-31 06:39:00,32.3,25.3,30.10,SSE,159,1.0,2.0,75,0.00,,,0.00,0,Wunderground v.1.15,2013-03-31 10:39:00,
2013-03-31 06:45:00,32.5,25.1,30.10,SSE,159,1.0,2.0,74,0.00,,,0.00,0,Wunderground v.1.15,2013-03-31 10:45:00,
2013-03-31 06:51:00,32.6,24.9,30.10,SSE,159,1.0,2.0,73,0.00,,,0.00,0,Wunderground v.1.15,2013-03-31 10:51:00,
2013-03-31 06:57:00,32.9,25.2,30.10,SSE,166,1.0,2.0,73,0.00,,,0.00,5,Wunderground v.1.15,2013-03-31 10:57:00,
2013-03-31 07:03:00,33.1,25.1,30.10,South,173,1.0,1.0,72,0.00,,,0.00,9,Wunderground v.1.15,2013-03-31 11:03:00,
2013-03-31 07:09:00,33.2,25.1,30.10,South,173,1.0,1.0,72,0.00,,,0.00,16,Wunderground v.1.15,2013-03-31 11:09:00,
2013-03-31 07:15:00,33.0,25.3,30.10,South,173,1.0,2.0,73,0.00,,,0.00,25,Wunderground v.1.15,2013-03-31 11:15:00,
2013-03-31 07:20:00,33.0,25.3,30.10,South,169,1.0,1.0,73,0.00,,,0.00,33,Wunderground v.1.15,2013-03-31 11:20:00,
2013-03-31 07:25:00,32.9,25.5,30.09,South,169,1.0,1.0,74,0.00,,,0.00,40,Wunderground v.1.15,2013-03-31 11:25:00,
2013-03-31 07:30:00,32.7,25.6,30.09,South,169,1.0,2.0,75,0.00,,,0.00,47,Wunderground v.1.15,2013-03-31 11:30:00,
2013-03-31 07:36:00,32.6,25.6,30.09,South,169,1.0,2.0,75,0.00,,,0.00,53,Wunderground v.1.15,2013-03-31 11:36:00,
2013-03-31 07:42:00,33.0,25.3,30.09,South,182,1.0,3.0,73,0.00,,,0.00,60,Wunderground v.1.15,2013-03-31 11:42:00,
2013-03-31 07:48:00,33.7,26.0,30.09,East,80,1.0,3.0,73,0.00,,,0.00,62,Wunderground v.1.15,2013-03-31 11:48:00,
2013-03-31 07:53:00,34.3,25.5,30.08,SE,144,1.0,1.0,70,0.00,,,0.00,69,Wunderground v.1.15,2013-03-31 11:53:00,
2013-03-31 07:59:00,34.6,26.2,30.09,SE,146,1.0,2.0,71,0.00,,,0.00,74,Wunderground v.1.15,2013-03-31 11:59:00,
2013-03-31 08:05:00,34.6,26.5,30.08,SE,146,1.0,2.0,72,0.00,,,0.00,79,Wunderground v.1.15,2013-03-31 12:05:00,
2013-03-31 08:11:00,34.4,26.3,30.08,SSE,161,1.0,1.0,72,0.00,,,0.00,95,Wunderground v.1.15,2013-03-31 12:11:00,
2013-03-31 08:17:00,34.6,26.2,30.08,SSE,150,1.0,5.0,71,0.00,,,0.00,102,Wunderground v.1.15,2013-03-31 12:17:00,
2013-03-31 08:22:00,35.0,26.5,30.08,East,86,2.0,4.0,71,0.00,,,0.00,114,Wunderground v.1.15,2013-03-31 12:22:00,
2013-03-31 08:28:00,35.2,26.7,30.07,ESE,106,2.0,4.0,71,0.00,,,0.00,123,Wunderground v.1.15,2013-03-31 12:28:00,
2013-03-31 08:34:00,35.5,27.0,30.07,SSE,167,1.0,2.0,71,0.00,,,0.00,139,Wunderground v.1.15,2013-03-31 12:34:00,
2013-03-31 08:40:00,35.9,27.4,30.07,SSE,167,1.0,1.0,71,0.00,,,0.00,155,Wunderground v.1.15,2013-03-31 12:40:00,
2013-03-31 08:46:00,36.3,27.8,30.07,South,169,1.0,2.0,71,0.00,,,0.00,169,Wunderground v.1.15,2013-03-31 12:46:00,
2013-03-31 08:52:00,36.7,28.2,30.06,SSE,157,1.0,2.0,71,0.00,,,0.00,185,Wunderground v.1.15,2013-03-31 12:52:00,
2013-03-31 08:58:00,37.1,28.6,30.05,NNE,30,1.0,4.0,71,0.00,,,0.00,199,Wunderground v.1.15,2013-03-31 12:58:00,
2013-03-31 09:03:00,37.8,29.2,30.05,SW,236,2.0,4.0,71,0.00,,,0.00,199,Wunderground v.1.15,2013-03-31 13:03:00,
2013-03-31 09:10:00,38.8,29.5,30.05,NNW,334,3.0,3.0,69,0.00,,,0.00,195,Wunderground v.1.15,2013-03-31 13:10:00,
2013-03-31 09:16:00,39.9,29.8,30.05,North,9,2.0,4.0,67,0.00,,,0.00,202,Wunderground v.1.15,2013-03-31 13:16:00,
2013-03-31 09:22:00,40.8,30.3,30.05,NW,314,1.0,2.0,66,0.00,,,0.00,204,Wunderground v.1.15,2013-03-31 13:22:00,
2013-03-31 09:27:00,42.0,29.9,30.05,SE,131,1.0,4.0,62,0.00,,,0.00,207,Wunderground v.1.15,2013-03-31 13:27:00,
2013-03-31 09:33:00,43.2,30.2,30.04,SSE,163,2.0,2.0,60,0.00,,,0.00,204,Wunderground v.1.15,2013-03-31 13:33:00,
2013-03-31 09:39:00,44.3,30.0,30.04,SE,132,3.0,5.0,57,0.00,,,0.00,216,Wunderground v.1.15,2013-03-31 13:39:00,
2013-03-31 09:45:00,45.4,30.2,30.04,SE,126,4.0,6.0,55,0.00,,,0.00,236,Wunderground v.1.15,2013-03-31 13:45:00,
2013-03-31 09:51:00,47.3,30.5,30.04,SSE,156,5.0,5.0,52,0.00,,,0.00,264,Wunderground v.1.15,2013-03-31 13:51:00,
2013-03-31 09:56:00,48.6,30.3,30.03,SE,140,6.0,10.0,49,0.00,,,0.00,255,Wunderground v.1.15,2013-03-31 13:56:00,
2013-03-31 10:02:00,49.8,30.4,30.03,SSE,159,8.0,8.0,47,0.00,,,0.00,239,Wunderground v.1.15,2013-03-31 14:02:00,
2013-03-31 10:08:00,50.3,30.8,30.03,SSE,152,8.0,12.0,47,0.00,,,0.00,230,Wunderground v.1.15,2013-03-31 14:08:00,
2013-03-31 10:14:00,50.5,31.0,30.02,SE,130,7.0,8.0,47,0.00,,,0.00,230,Wunderground v.1.15,2013-03-31 14:14:00,
2013-03-31 10:20:00,50.8,31.3,30.01,SSE,165,7.0,7.0,47,0.00,,,0.00,243,Wunderground v.1.15,2013-03-31 14:20:00,
2013-03-31 10:25:00,50.9,30.8,30.01,SE,140,7.0,10.0,46,0.00,,,0.00,253,Wunderground v.1.15,2013-03-31 14:25:00,
2013-03-31 10:31:00,51.1,31.6,30.01,SE,146,7.0,7.0,47,0.00,,,0.00,250,Wunderground v.1.15,2013-03-31 14:31:00,
2013-03-31 10:37:00,51.2,31.6,30.01,SE,136,7.0,10.0,47,0.00,,,0.00,179,Wunderground v.1.15,2013-03-31 14:37:00,
2013-03-31 10:43:00,51.1,31.6,30.01,SSE,166,7.0,10.0,47,0.00,,,0.00,120,Wunderground v.1.15,2013-03-31 14:43:00,
2013-03-31 10:49:00,51.0,31.5,30.00,SSE,156,7.0,11.0,47,0.00,,,0.00,97,Wunderground v.1.15,2013-03-31 14:49:00,
2013-03-31 10:54:00,51.0,31.5,30.00,SSE,168,8.0,11.0,47,0.00,,,0.00,209,Wunderground v.1.15,2013-03-31 14:54:00,
2013-03-31 11:00:00,51.4,32.3,29.99,SSW,196,7.0,7.0,48,0.00,,,0.00,267,Wunderground v.1.15,2013-03-31 15:00:00,
2013-03-31 11:06:00,51.7,33.1,30.00,ESE,121,7.0,12.0,49,0.00,,,0.00,155,Wunderground v.1.15,2013-03-31 15:06:00,
2013-03-31 11:12:00,51.8,33.7,30.00,SE,141,7.0,11.0,50,0.00,,,0.00,105,Wunderground v.1.15,2013-03-31 15:12:00,
2013-03-31 11:17:00,51.4,34.8,30.00,SSE,155,9.0,15.0,53,0.00,,,0.00,56,Wunderground v.1.15,2013-03-31 15:17:00,
2013-03-31 11:23:00,50.5,36.3,30.01,ESE,111,10.0,14.0,58,0.00,,,0.00,56,Wunderground v.1.15,2013-03-31 15:23:00,
2013-03-31 11:28:00,50.0,36.7,30.01,ESE,109,10.0,14.0,60,0.00,,,0.00,53,Wunderground v.1.15,2013-03-31 15:28:00,
2013-03-31 11:34:00,49.7,36.4,30.01,SSE,152,9.0,13.0,60,0.00,,,0.00,44,Wunderground v.1.15,2013-03-31 15:34:00,
2013-03-31 11:40:00,49.0,37.7,30.01,SSE,150,9.0,12.0,65,0.00,,,0.00,49,Wunderground v.1.15,2013-03-31 15:40:00,
2013-03-31 11:45:00,47.9,38.2,30.01,SE,136,10.0,12.0,69,0.00,,,0.00,56,Wunderground v.1.15,2013-03-31 15:45:00,
2013-03-31 11:50:00,47.4,38.5,30.01,SSE,148,8.0,9.0,71,0.00,,,0.01,47,Wunderground v.1.15,2013-03-31 15:50:00,
2013-03-31 11:56:00,46.8,38.6,30.01,SSE,162,7.0,9.0,73,0.17,,,0.02,69,Wunderground v.1.15,2013-03-31 15:56:00,
2013-03-31 12:01:00,46.4,39.2,30.01,SE,136,6.0,10.0,76,0.08,,,0.02,70,Wunderground v.1.15,2013-03-31 16:01:00,
2013-03-31 12:07:00,46.1,39.3,30.00,SE,131,5.0,10.0,77,0.05,,,0.02,77,Wunderground v.1.15,2013-03-31 16:07:00,
2013-03-31 12:12:00,46.1,39.0,30.01,SE,138,5.0,6.0,76,0.00,,,0.02,58,Wunderground v.1.15,2013-03-31 16:12:00,
2013-03-31 12:17:00,46.0,39.5,30.01,ESE,105,5.0,6.0,78,0.00,,,0.03,65,Wunderground v.1.15,2013-03-31 16:17:00,
2013-03-31 12:23:00,45.8,39.7,30.00,SE,142,4.0,5.0,79,0.07,,,0.04,47,Wunderground v.1.15,2013-03-31 16:23:00,
2013-03-31 12:29:00,45.5,39.7,30.00,SE,137,3.0,5.0,80,0.07,,,0.04,76,Wunderground v.1.15,2013-03-31 16:29:00,
2013-03-31 12:35:00,45.3,39.5,30.00,SSE,161,3.0,5.0,80,0.05,,,0.04,63,Wunderground v.1.15,2013-03-31 16:35:00,
2013-03-31 12:40:00,45.3,39.8,30.00,SE,138,3.0,3.0,81,0.04,,,0.05,91,Wunderground v.1.15,2013-03-31 16:40:00,
2013-03-31 12:46:00,45.2,40.3,30.00,SE,146,2.0,3.0,83,0.08,,,0.06,74,Wunderground v.1.15,2013-03-31 16:46:00,
2013-03-31 12:52:00,45.1,40.2,29.99,SE,146,2.0,2.0,83,0.08,,,0.06,95,Wunderground v.1.15,2013-03-31 16:52:00,
2013-03-31 12:57:00,45.0,39.8,29.99,SSE,163,1.0,2.0,82,0.05,,,0.06,95,Wunderground v.1.15,2013-03-31 16:57:00,
2013-03-31 13:03:00,45.0,40.1,29.98,South,169,1.0,1.0,83,0.04,,,0.07,72,Wunderground v.1.15,2013-03-31 17:03:00,
2013-03-31 13:09:00,45.0,39.5,29.98,SSE,159,1.0,4.0,81,0.04,,,0.07,56,Wunderground v.1.15,2013-03-31 17:09:00,
2013-03-31 13:15:00,45.2,40.0,29.98,SSE,149,2.0,3.0,82,0.04,,,0.07,120,Wunderground v.1.15,2013-03-31 17:15:00,
2013-03-31 13:21:00,45.3,39.8,29.97,SSE,166,2.0,2.0,81,0.00,,,0.07,200,Wunderground v.1.15,2013-03-31 17:21:00,
2013-03-31 13:26:00,45.4,40.2,29.97,SSW,209,2.0,4.0,82,0.00,,,0.07,148,Wunderground v.1.15,2013-03-31 17:26:00,
2013-03-31 13:31:00,45.7,39.9,29.96,South,184,3.0,5.0,80,0.00,,,0.07,195,Wunderground v.1.15,2013-03-31 17:31:00,
2013-03-31 13:37:00,45.9,40.1,29.95,South,175,3.0,5.0,80,0.00,,,0.07,127,Wunderground v.1.15,2013-03-31 17:37:00,
2013-03-31 13:43:00,46.0,40.5,29.95,South,183,2.0,5.0,81,0.00,,,0.08,95,Wunderground v.1.15,2013-03-31 17:43:00,
2013-03-31 13:49:00,46.0,41.1,29.94,South,175,2.0,5.0,83,0.00,,,0.08,86,Wunderground v.1.15,2013-03-31 17:49:00,
2013-03-31 13:54:00,46.0,41.1,29.95,SSW,213,1.0,5.0,83,0.00,,,0.08,90,Wunderground v.1.15,2013-03-31 17:54:00,
2013-03-31 14:00:00,46.0,40.8,29.94,SSW,209,3.0,5.0,82,0.00,,,0.08,151,Wunderground v.1.15,2013-03-31 18:00:00,
2013-03-31 14:06:00,46.1,41.5,29.93,SSW,200,3.0,5.0,84,0.00,,,0.08,253,Wunderground v.1.15,2013-03-31 18:06:00,
2013-03-31 14:12:00,46.3,42.0,29.93,NNE,28,1.0,2.0,85,0.00,,,0.08,176,Wunderground v.1.15,2013-03-31 18:12:00,
2013-03-31 14:17:00,46.6,42.0,29.92,South,190,2.0,8.0,84,0.00,,,0.08,320,Wunderground v.1.15,2013-03-31 18:17:00,
2013-03-31 14:22:00,47.1,42.2,29.92,SSW,196,3.0,4.0,83,0.00,,,0.08,308,Wunderground v.1.15,2013-03-31 18:22:00,
2013-03-31 14:27:00,47.3,42.1,29.91,South,188,3.0,6.0,82,0.00,,,0.08,200,Wunderground v.1.15,2013-03-31 18:27:00,
2013-03-31 14:33:00,47.5,42.3,29.91,South,173,3.0,7.0,82,0.00,,,0.08,188,Wunderground v.1.15,2013-03-31 18:33:00,
2013-03-31 14:38:00,47.5,42.3,29.91,SSE,168,5.0,9.0,82,0.00,,,0.08,125,Wunderground v.1.15,2013-03-31 18:38:00,
2013-03-31 14:44:00,47.6,42.7,29.90,SSW,194,5.0,5.0,83,0.00,,,0.09,79,Wunderground v.1.15,2013-03-31 18:44:00,
2013-03-31 14:49:00,47.6,42.1,29.90,South,175,4.0,5.0,81,0.00,,,0.09,109,Wunderground v.1.15,2013-03-31 18:49:00,
2013-03-31 14:55:00,47.6,42.1,29.90,SSW,196,5.0,7.0,81,0.00,,,0.09,120,Wunderground v.1.15,2013-03-31 18:55:00,
2013-03-31 15:00:00,47.8,42.3,29.89,South,179,5.0,5.0,81,0.00,,,0.09,113,Wunderground v.1.15,2013-03-31 19:00:00,
2013-03-31 15:06:00,48.0,42.1,29.89,South,175,4.0,6.0,80,0.00,,,0.09,125,Wunderground v.1.15,2013-03-31 19:06:00,
2013-03-31 15:12:00,48.2,42.0,29.89,SSE,149,3.0,4.0,79,0.00,,,0.09,60,Wunderground v.1.15,2013-03-31 19:12:00,
2013-03-31 15:18:00,48.3,42.1,29.89,SSE,166,2.0,4.0,79,0.00,,,0.09,69,Wunderground v.1.15,2013-03-31 19:18:00,
2013-03-31 15:23:00,48.3,42.1,29.89,SSE,158,2.0,2.0,79,0.00,,,0.09,54,Wunderground v.1.15,2013-03-31 19:23:00,
2013-03-31 15:29:00,48.2,42.0,29.88,South,190,2.0,5.0,79,0.00,,,0.09,62,Wunderground v.1.15,2013-03-31 19:29:00,
2013-03-31 15:34:00,48.2,42.3,29.88,South,171,3.0,5.0,80,0.00,,,0.09,109,Wunderground v.1.15,2013-03-31 19:34:00,
2013-03-31 15:40:00,48.2,42.6,29.87,South,188,3.0,3.0,81,0.00,,,0.09,114,Wunderground v.1.15,2013-03-31 19:40:00,
2013-03-31 15:46:00,48.2,42.6,29.87,South,183,3.0,5.0,81,0.00,,,0.09,88,Wunderground v.1.15,2013-03-31 19:46:00,
2013-03-31 15:52:00,48.3,43.1,29.87,South,190,1.0,3.0,82,0.00,,,0.09,77,Wunderground v.1.15,2013-03-31 19:52:00,
2013-03-31 15:58:00,48.3,42.4,29.86,South,191,2.0,5.0,80,0.00,,,0.09,74,Wunderground v.1.15,2013-03-31 19:58:00,
2013-03-31 16:03:00,48.2,42.3,29.86,South,184,3.0,6.0,80,0.00,,,0.09,40,Wunderground v.1.15,2013-03-31 20:03:00,
2013-03-31 16:09:00,48.1,42.2,29.86,SSW,198,4.0,6.0,80,0.00,,,0.09,46,Wunderground v.1.15,2013-03-31 20:09:00,
2013-03-31 16:15:00,48.1,42.2,29.86,South,191,3.0,4.0,80,0.00,,,0.09,49,Wunderground v.1.15,2013-03-31 20:15:00,
2013-03-31 16:21:00,48.0,42.4,29.86,South,172,4.0,4.0,81,0.00,,,0.09,30,Wunderground v.1.15,2013-03-31 20:21:00,
2013-03-31 16:26:00,47.9,42.7,29.85,South,183,4.0,5.0,82,0.00,,,0.09,28,Wunderground v.1.15,2013-03-31 20:26:00,
2013-03-31 16:32:00,47.9,42.7,29.85,SSE,167,3.0,4.0,82,0.00,,,0.10,53,Wunderground v.1.15,2013-03-31 20:32:00,
2013-03-31 16:38:00,47.8,42.6,29.85,South,178,3.0,4.0,82,0.00,,,0.10,32,Wunderground v.1.15,2013-03-31 20:38:00,
2013-03-31 16:44:00,47.8,42.3,29.85,South,175,2.0,4.0,81,0.00,,,0.10,23,Wunderground v.1.15,2013-03-31 20:44:00,
2013-03-31 16:49:00,47.7,42.5,29.84,South,175,2.0,4.0,82,0.00,,,0.10,26,Wunderground v.1.15,2013-03-31 20:49:00,
2013-03-31 16:55:00,47.7,42.5,29.84,South,191,2.0,2.0,82,0.00,,,0.10,33,Wunderground v.1.15,2013-03-31 20:55:00,
2013-03-31 17:00:00,47.8,43.2,29.83,South,191,1.0,1.0,84,0.00,,,0.10,28,Wunderground v.1.15,2013-03-31 21:00:00,
2013-03-31 17:07:00,47.7,42.8,29.83,SSW,197,1.0,4.0,83,0.00,,,0.10,23,Wunderground v.1.15,2013-03-31 21:07:00,
2013-03-31 17:13:00,47.7,42.8,29.83,South,182,1.0,4.0,83,0.00,,,0.11,23,Wunderground v.1.15,2013-03-31 21:13:00,
2013-03-31 17:19:00,47.9,42.7,29.83,SSE,165,2.0,5.0,82,0.00,,,0.11,30,Wunderground v.1.15,2013-03-31 21:19:00,
2013-03-31 17:25:00,47.9,42.7,29.82,South,174,4.0,5.0,82,0.00,,,0.11,33,Wunderground v.1.15,2013-03-31 21:25:00,
2013-03-31 17:31:00,47.8,42.9,29.82,SSE,150,3.0,5.0,83,0.00,,,0.11,21,Wunderground v.1.15,2013-03-31 21:31:00,
2013-03-31 17:36:00,47.8,43.2,29.81,SSE,152,2.0,5.0,84,0.00,,,0.11,12,Wunderground v.1.15,2013-03-31 21:36:00,
2013-03-31 17:41:00,47.7,42.8,29.82,South,175,2.0,2.0,83,0.00,,,0.11,14,Wunderground v.1.15,2013-03-31 21:41:00,
2013-03-31 17:47:00,47.8,42.6,29.81,South,169,2.0,3.0,82,0.00,,,0.11,12,Wunderground v.1.15,2013-03-31 21:47:00,
2013-03-31 17:53:00,47.9,42.7,29.81,SSE,166,2.0,2.0,82,0.00,,,0.11,11,Wunderground v.1.15,2013-03-31 21:53:00,
2013-03-31 17:59:00,47.9,42.7,29.81,SSE,165,2.0,5.0,82,0.00,,,0.11,7,Wunderground v.1.15,2013-03-31 21:59:00,
2013-03-31 18:05:00,47.9,42.7,29.81,SSE,154,2.0,2.0,82,0.00,,,0.11,5,Wunderground v.1.15,2013-03-31 22:05:00,
2013-03-31 18:10:00,48.0,42.4,29.81,SSE,162,2.0,2.0,81,0.00,,,0.11,5,Wunderground v.1.15,2013-03-31 22:10:00,
2013-03-31 18:15:00,48.1,42.9,29.81,SSE,155,2.0,2.0,82,0.00,,,0.11,5,Wunderground v.1.15,2013-03-31 22:15:00,
2013-03-31 18:21:00,48.0,43.1,29.81,SSE,163,1.0,4.0,83,0.00,,,0.12,7,Wunderground v.1.15,2013-03-31 22:21:00,
2013-03-31 18:27:00,47.9,43.0,29.80,SSE,157,2.0,4.0,83,0.00,,,0.12,5,Wunderground v.1.15,2013-03-31 22:27:00,
2013-03-31 18:32:00,47.8,43.2,29.80,SSE,147,1.0,2.0,84,0.00,,,0.12,5,Wunderground v.1.15,2013-03-31 22:32:00,
2013-03-31 18:37:00,47.8,42.9,29.80,South,171,3.0,8.0,83,0.00,,,0.12,5,Wunderground v.1.15,2013-03-31 22:37:00,
2013-03-31 18:43:00,47.8,43.2,29.80,South,177,4.0,4.0,84,0.00,,,0.12,5,Wunderground v.1.15,2013-03-31 22:43:00,
2013-03-31 18:49:00,47.7,43.1,29.80,South,169,2.0,4.0,84,0.00,,,0.12,0,Wunderground v.1.15,2013-03-31 22:49:00,
2013-03-31 18:55:00,47.7,43.1,29.80,SE,135,2.0,4.0,84,0.00,,,0.12,0,Wunderground v.1.15,2013-03-31 22:55:00,
2013-03-31 19:00:00,47.7,43.4,29.80,SE,136,2.0,2.0,85,0.00,,,0.12,0,Wunderground v.1.15,2013-03-31 23:00:00,
2013-03-31 19:05:00,47.7,43.7,29.80,SSW,205,2.0,4.0,86,0.00,,,0.12,0,Wunderground v.1.15,2013-03-31 23:05:00,
2013-03-31 19:11:00,47.6,43.9,29.80,South,184,1.0,1.0,87,0.00,,,0.13,0,Wunderground v.1.15,2013-03-31 23:11:00,
2013-03-31 19:16:00,47.4,43.7,29.80,West,275,1.0,2.0,87,0.00,,,0.13,0,Wunderground v.1.15,2013-03-31 23:16:00,
2013-03-31 19:21:00,47.3,43.9,29.80,South,171,1.0,1.0,88,0.07,,,0.14,0,Wunderground v.1.15,2013-03-31 23:21:00,
2013-03-31 19:27:00,47.1,44.0,29.80,WSW,240,1.0,1.0,89,0.06,,,0.14,0,Wunderground v.1.15,2013-03-31 23:27:00,
2013-03-31 19:32:00,46.8,44.0,29.80,WSW,246,1.0,2.0,90,0.04,,,0.14,0,Wunderground v.1.15,2013-03-31 23:32:00,
2013-03-31 19:38:00,46.5,44.0,29.80,WNW,285,1.0,4.0,91,0.00,,,0.14,0,Wunderground v.1.15,2013-03-31 23:38:00,
2013-03-31 19:43:00,46.3,43.8,29.80,WNW,283,2.0,4.0,91,0.00,,,0.14,0,Wunderground v.1.15,2013-03-31 23:43:00,
2013-03-31 19:49:00,46.3,44.1,29.80,WNW,288,2.0,4.0,92,0.00,,,0.15,0,Wunderground v.1.15,2013-03-31 23:49:00,
2013-03-31 19:55:00,46.1,43.9,29.80,WNW,292,2.0,4.0,92,0.00,,,0.15,0,Wunderground v.1.15,2013-03-31 23:55:00,
2013-03-31 20:00:00,46.1,44.2,29.80,WNW,291,2.0,3.0,93,0.00,,,0.15,0,Wunderground v.1.15,2013-04-01 00:00:00,
2013-03-31 20:06:00,46.1,44.2,29.80,NW,321,2.0,3.0,93,0.00,,,0.15,0,Wunderground v.1.15,2013-04-01 00:06:00,
2013-03-31 20:12:00,46.1,44.2,29.80,NNW,330,2.0,2.0,93,0.00,,,0.16,0,Wunderground v.1.15,2013-04-01 00:12:00,
2013-03-31 20:18:00,46.1,44.2,29.80,NNW,329,3.0,4.0,93,0.00,,,0.16,0,Wunderground v.1.15,2013-04-01 00:18:00,
2013-03-31 20:24:00,46.0,44.1,29.80,NW,315,3.0,3.0,93,0.00,,,0.16,0,Wunderground v.1.15,2013-04-01 00:24:00,
2013-03-31 20:30:00,45.9,44.3,29.80,WNW,287,2.0,2.0,94,0.04,,,0.17,0,Wunderground v.1.15,2013-04-01 00:30:00,
2013-03-31 20:36:00,45.9,44.3,29.81,NW,317,2.0,3.0,94,0.04,,,0.17,0,Wunderground v.1.15,2013-04-01 00:36:00,
2013-03-31 20:42:00,45.9,44.3,29.81,WNW,296,2.0,2.0,94,0.04,,,0.17,0,Wunderground v.1.15,2013-04-01 00:42:00,
2013-03-31 20:48:00,45.9,44.3,29.81,WNW,296,1.0,2.0,94,0.04,,,0.18,0,Wunderground v.1.15,2013-04-01 00:48:00,
2013-03-31 20:54:00,45.8,44.2,29.81,WNW,296,2.0,4.0,94,0.04,,,0.18,0,Wunderground v.1.15,2013-04-01 00:54:00,
2013-03-31 21:00:00,45.8,44.2,29.81,WNW,294,2.0,2.0,94,0.00,,,0.18,0,Wunderground v.1.15,2013-04-01 01:00:00,
2013-03-31 21:06:00,45.8,44.2,29.81,NW,304,1.0,2.0,94,0.00,,,0.19,0,Wunderground v.1.15,2013-04-01 01:06:00,
2013-03-31 21:12:00,45.7,44.4,29.81,WNW,298,1.0,1.0,95,0.00,,,0.19,0,Wunderground v.1.15,2013-04-01 01:12:00,
2013-03-31 21:17:00,45.7,44.4,29.81,WNW,290,2.0,2.0,95,0.00,,,0.19,0,Wunderground v.1.15,2013-04-01 01:17:00,
2013-03-31 21:22:00,45.6,44.3,29.81,WNW,296,1.0,3.0,95,0.04,,,0.20,0,Wunderground v.1.15,2013-04-01 01:22:00,
2013-03-31 21:28:00,45.5,44.2,29.82,NW,315,2.0,5.0,95,0.04,,,0.20,0,Wunderground v.1.15,2013-04-01 01:28:00,
2013-03-31 21:34:00,45.5,44.2,29.81,WNW,288,3.0,3.0,95,0.04,,,0.20,0,Wunderground v.1.15,2013-04-01 01:34:00,
2013-03-31 21:40:00,45.4,44.1,29.81,WNW,298,2.0,4.0,95,0.00,,,0.20,0,Wunderground v.1.15,2013-04-01 01:40:00,
2013-03-31 21:45:00,45.3,44.0,29.82,WNW,297,3.0,4.0,95,0.00,,,0.20,0,Wunderground v.1.15,2013-04-01 01:45:00,
2013-03-31 21:51:00,45.3,44.0,29.82,WNW,284,3.0,3.0,95,0.00,,,0.20,0,Wunderground v.1.15,2013-04-01 01:51:00,
2013-03-31 21:57:00,45.2,43.9,29.82,WNW,291,2.0,5.0,95,0.00,,,0.20,0,Wunderground v.1.15,2013-04-01 01:57:00,
2013-03-31 22:02:00,45.2,43.9,29.82,WNW,294,2.0,2.0,95,0.00,,,0.20,0,Wunderground v.1.15,2013-04-01 02:02:00,
2013-03-31 22:08:00,45.2,43.9,29.82,WNW,292,1.0,2.0,95,0.00,,,0.20,0,Wunderground v.1.15,2013-04-01 02:08:00,
2013-03-31 22:13:00,45.2,43.9,29.82,WNW,292,1.0,3.0,95,0.00,,,0.21,0,Wunderground v.1.15,2013-04-01 02:13:00,
2013-03-31 22:19:00,45.2,43.9,29.82,WNW,292,1.0,3.0,95,0.00,,,0.21,0,Wunderground v.1.15,2013-04-01 02:19:00,
2013-03-31 22:25:00,45.2,43.9,29.82,WSW,248,1.0,3.0,95,0.00,,,0.21,0,Wunderground v.1.15,2013-04-01 02:25:00,
2013-03-31 22:31:00,45.1,43.8,29.82,SE,128,1.0,2.0,95,0.00,,,0.21,0,Wunderground v.1.15,2013-04-01 02:31:00,
2013-03-31 22:37:00,45.1,43.8,29.82,West,277,2.0,5.0,95,0.00,,,0.21,0,Wunderground v.1.15,2013-04-01 02:37:00,
2013-03-31 22:43:00,45.0,43.7,29.82,WSW,243,3.0,7.0,95,0.00,,,0.21,0,Wunderground v.1.15,2013-04-01 02:43:00,
2013-03-31 22:48:00,45.0,43.7,29.81,West,271,4.0,7.0,95,0.00,,,0.21,0,Wunderground v.1.15,2013-04-01 02:48:00,
2013-03-31 22:54:00,44.9,43.6,29.82,West,267,4.0,4.0,95,0.00,,,0.21,0,Wunderground v.1.15,2013-04-01 02:54:00,
2013-03-31 22:59:00,44.9,43.3,29.82,SSW,193,3.0,5.0,94,0.00,,,0.21,0,Wunderground v.1.15,2013-04-01 02:59:00,
2013-03-31 23:05:00,44.9,43.3,29.81,WNW,298,3.0,4.0,94,0.00,,,0.21,0,Wunderground v.1.15,2013-04-01 03:05:00,
2013-03-31 23:11:00,44.8,43.2,29.81,ESE,119,3.0,4.0,94,0.00,,,0.21,0,Wunderground v.1.15,2013-04-01 03:11:00,
2013-03-31 23:17:00,44.7,43.1,29.81,SE,138,3.0,6.0,94,0.00,,,0.21,0,Wunderground v.1.15,2013-04-01 03:17:00,
2013-03-31 23:23:00,44.6,43.0,29.81,SE,138,4.0,6.0,94,0.00,,,0.21,0,Wunderground v.1.15,2013-04-01 03:23:00,
2013-03-31 23:29:00,44.5,42.9,29.81,SE,140,4.0,6.0,94,0.00,,,0.21,0,Wunderground v.1.15,2013-04-01 03:29:00,
2013-03-31 23:34:00,44.5,43.2,29.80,SE,126,3.0,4.0,95,0.00,,,0.21,0,Wunderground v.1.15,2013-04-01 03:34:00,
2013-03-31 23:40:00,44.4,43.1,29.80,East,82,3.0,3.0,95,0.00,,,0.21,0,Wunderground v.1.15,2013-04-01 03:40:00,
2013-03-31 23:45:00,44.4,43.1,29.80,SE,128,4.0,10.0,95,0.00,,,0.21,0,Wunderground v.1.15,2013-04-01 03:45:00,
2013-03-31 23:51:00,44.3,43.0,29.80,SE,140,5.0,5.0,95,0.00,,,0.21,0,Wunderground v.1.15,2013-04-01 03:51:00,
2013-03-31 23:56:00,44.2,42.6,29.80,ESE,105,4.0,7.0,94,0.00,,,0.21,0,Wunderground v.1.15,2013-04-01 03:56:00,